Location: Newark
(47.5833°N, 8.1500°E)
Time: 18:54:17
(UTC+00:00)

Transit 2A - Pass Details

Date: 28 October 2020
Orbit: 595 x 964 km, 66.7° (Epoch: 01 December)

Event Time Altitude Azimuth Distance (km) Brightness Sun altitude
Rises 10:19:17 0° 317° (NW) 3,426 8.9 28.0°
Reaches altitude 10° 10:22:17 10° 304° (NW) 2,420 8.3 28.1°
Maximum altitude 10:26:35 24° 253° (WSW) 1,572 7.9 28.3°
Drops below altitude 10° 10:30:33 10° 201° (SSW) 2,209 9.4 28.4°
Sets 10:33:10 0° 187° (S) 3,061 10.2 28.5°
